Plattsmouth, NE

4:58 PM CDT on April 26, 2018 (GMT -0500)
Plattsmouth Municipal

Weather History for KPMV - October, 2012

Change the Weather History Date:

Thursday, October 11, 2012

  Actual Average (KOFF) Record (KOFF)
Temperature  
Mean Temperature 55 °F -  
Max Temperature 65 °F 66 °F 90 °F (2015)
Min Temperature 45 °F 44 °F 32 °F (2006)
Degree Days  
Heating Degree Days 10    
Growing Degree Days 5 (Base 50)    
Moisture  
Dew Point 32 °F    
Average Humidity 45    
Maximum Humidity 61    
Minimum Humidity 31    
Precipitation  
Precipitation 0.03 in - - ()
Sea Level Pressure  
Sea Level Pressure 30.11 in    
Wind  
Wind Speed 11 mph (ESE)    
Max Wind Speed 20 mph    
Max Gust Speed 25 mph    
Visibility 10 miles    
Events      
Averages and records for this station are not official NWS values.
T = Trace of Precipitation, MM = Missing Value Source: NWS Daily Summary

Daily Weather History Graph

Daily Weather History Graph

Search for Another Location

Airport or City:

Astronomy

Oct. 11, 2012 Rise Set
Actual Time 7:31 AM CDT 6:48 PM CDT
Civil Twilight 7:03 AM CDT 7:16 PM CDT
Nautical Twilight 6:31 AM CDT 7:47 PM CDT
Astronomical Twilight 6:00 AM CDT 8:19 PM CDT
Moon 3:09 AM CDT (10/11) 4:27 PM CDT (10/11)
Length of Visible Light 12h 12m
Length of Day
11h 17m
Waning Crescent, 18% of the Moon is Illuminated
Oct 11
Waning Crescent
Oct 15
New
Oct 21
First Quarter
Oct 29
Full
Nov 6
Last Quarter

Hourly Weather History & Observations

Time (CDT) Temp. Windchill Dew Point Humidity Pressure Visibility Wind Dir Wind Speed Gust Speed Precip Events Conditions
12:15 AM 47.3 °F - 28.6 °F 48% 30.06 in 10.0 mi South 10.4 mph - N/A   Clear
12:55 AM 48.2 °F - 28.4 °F 46% 30.05 in 10.0 mi South 12.7 mph - N/A   Clear
1:15 AM 48.2 °F - 29.1 °F 48% 30.05 in 10.0 mi South 12.7 mph 18.4 mph N/A   Clear
1:55 AM 47.5 °F - 29.7 °F 50% 30.04 in 10.0 mi South 11.5 mph - N/A   Clear
2:15 AM 47.7 °F - 30.0 °F 50% 30.04 in 10.0 mi South 12.7 mph - N/A   Clear
2:35 AM 48.2 °F - 30.2 °F 50% 30.04 in 10.0 mi South 13.8 mph - N/A   Clear
2:55 AM 47.8 °F - 30.6 °F 51% 30.04 in 10.0 mi South 15.0 mph - N/A   Clear
3:15 AM 47.8 °F - 30.7 °F 52% 30.04 in 10.0 mi South 12.7 mph - N/A   Clear
3:35 AM 47.3 °F - 30.9 °F 53% 30.04 in 10.0 mi South 12.7 mph - N/A   Clear
3:55 AM 47.3 °F - 31.1 °F 53% 30.04 in 10.0 mi South 11.5 mph - N/A   Clear
4:15 AM 46.9 °F - 31.1 °F 54% 30.03 in 10.0 mi South 13.8 mph - N/A   Clear
4:35 AM 47.3 °F - 31.5 °F 54% 30.03 in 10.0 mi South 12.7 mph - N/A   Clear
4:55 AM 47.1 °F - 31.5 °F 55% 30.03 in 10.0 mi South 9.2 mph - N/A   Clear
5:15 AM 47.3 °F - 31.6 °F 55% 30.03 in 10.0 mi South 9.2 mph - N/A   Clear
5:35 AM 47.3 °F - 31.6 °F 55% 30.03 in 10.0 mi South 10.4 mph - N/A   Clear
5:55 AM 46.8 °F - 31.5 °F 55% 30.03 in 10.0 mi SSE 8.1 mph - N/A   Clear
6:15 AM 46.2 °F 41.2 °F 31.6 °F 57% 30.02 in 10.0 mi SSE 10.4 mph - N/A   Clear
6:35 AM 46.0 °F 41.4 °F 31.8 °F 58% 30.02 in 10.0 mi SSE 9.2 mph - N/A   Clear
6:55 AM 45.9 °F 40.4 °F 32.0 °F 58% 30.02 in 10.0 mi South 11.5 mph - N/A   Clear
7:15 AM 46.0 °F 41.0 °F 32.0 °F 58% 30.02 in 10.0 mi South 10.4 mph - N/A   Clear
7:35 AM 45.7 °F 41.5 °F 32.0 °F 59% 30.03 in 10.0 mi South 8.1 mph - N/A   Clear
7:55 AM 45.5 °F 42.5 °F 32.0 °F 59% 30.04 in 10.0 mi South 5.8 mph - N/A   Clear
8:15 AM 45.9 °F 42.9 °F 32.4 °F 59% 30.04 in 10.0 mi South 5.8 mph - N/A   Clear
8:35 AM 46.4 °F 44.3 °F 32.5 °F 59% 30.04 in 10.0 mi SSE 4.6 mph - N/A   Clear
8:55 AM 45.9 °F 42.3 °F 32.9 °F 61% 30.05 in 10.0 mi SSE 6.9 mph - N/A   Clear
9:15 AM 49.1 °F - 33.4 °F 55% 30.05 in 10.0 mi SSE 6.9 mph - N/A   Clear
9:35 AM 53.1 °F - 34.5 °F 49% 30.05 in 10.0 mi South 6.9 mph - N/A   Clear
9:55 AM 55.4 °F - 34.3 °F 45% 30.06 in 10.0 mi SW 6.9 mph - N/A   Clear
10:15 AM 57.0 °F - 35.1 °F 44% 30.07 in 10.0 mi West 4.6 mph - N/A   Clear
10:35 AM 59.0 °F - 35.8 °F 42% 30.07 in 10.0 mi SW 3.5 mph - N/A   Clear
10:55 AM 62.6 °F - 36.3 °F 38% 30.07 in 10.0 mi West 5.8 mph - N/A   Clear
11:15 AM 63.0 °F - 37.2 °F 38% 30.07 in 10.0 mi WSW 9.2 mph - N/A   Clear
11:35 AM 63.7 °F - 37.9 °F 39% 30.07 in 10.0 mi West 10.4 mph - N/A   Scattered Clouds
11:55 AM 65.1 °F - 38.1 °F 37% 30.08 in 10.0 mi West 9.2 mph - N/A   Clear
12:15 PM 65.1 °F - 37.6 °F 36% 30.08 in 10.0 mi WNW 5.8 mph - N/A   Clear
12:55 PM 63.0 °F - 36.5 °F 37% 30.07 in 10.0 mi NNW 4.6 mph - N/A   Clear
1:15 PM 63.7 °F - 36.3 °F 36% 30.08 in 10.0 mi NW 6.9 mph - N/A   Clear
1:35 PM 64.0 °F - 35.6 °F 35% 30.08 in 10.0 mi NW 4.6 mph - N/A   Clear
1:55 PM 62.2 °F - 35.6 °F 37% 30.08 in 10.0 mi North 8.1 mph - N/A   Clear
2:15 PM 61.7 °F - 35.8 °F 38% 30.08 in 10.0 mi NNW 4.6 mph - N/A   Clear
2:35 PM 62.6 °F - 36.1 °F 37% 30.08 in 10.0 mi North 6.9 mph - N/A   Clear
2:55 PM 64.6 °F - 35.4 °F 34% 30.09 in 10.0 mi North 8.1 mph - N/A   Clear
3:15 PM 63.9 °F - 34.7 °F 34% 30.08 in 10.0 mi North 9.2 mph - N/A   Scattered Clouds
3:55 PM 65.1 °F - 33.3 °F 31% 30.08 in 10.0 mi NNE 13.8 mph 19.6 mph 0.03 in   Scattered Clouds
4:15 PM 64.4 °F - 32.9 °F 31% 30.09 in 10.0 mi North 16.1 mph - N/A   Clear
4:55 PM 60.8 °F - 31.8 °F 34% 30.12 in 10.0 mi NNE 16.1 mph 23.0 mph N/A   Clear
5:35 PM 59.2 °F - 32.0 °F 36% 30.13 in 10.0 mi North 17.3 mph 25.3 mph N/A   Clear
5:55 PM 56.8 °F - 32.4 °F 40% 30.16 in 10.0 mi NNE 19.6 mph 24.2 mph N/A   Clear
6:35 PM 54.5 °F - 32.0 °F 42% 30.18 in 10.0 mi NNE 15.0 mph 23.0 mph N/A   Mostly Cloudy
6:55 PM 53.8 °F - 30.4 °F 41% 30.20 in 10.0 mi NNE 12.7 mph 20.7 mph N/A   Mostly Cloudy
7:15 PM 53.6 °F - 30.2 °F 41% 30.20 in 10.0 mi North 11.5 mph - N/A   Overcast
7:35 PM 52.9 °F - 30.0 °F 42% 30.21 in 10.0 mi NNE 13.8 mph 19.6 mph N/A   Overcast
7:55 PM 52.0 °F - 28.9 °F 41% 30.23 in 10.0 mi NNE 17.3 mph 23.0 mph N/A   Overcast
8:15 PM 51.4 °F - 27.5 °F 40% 30.24 in 10.0 mi North 15.0 mph 21.9 mph N/A   Overcast
8:35 PM 50.9 °F - 26.6 °F 39% 30.25 in 10.0 mi North 12.7 mph 21.9 mph N/A   Overcast
8:55 PM 50.2 °F - 26.8 °F 40% 30.26 in 10.0 mi NNE 13.8 mph 19.6 mph N/A   Overcast
9:15 PM 50.0 °F - 26.4 °F 40% 30.28 in 10.0 mi NNE 15.0 mph 21.9 mph N/A   Overcast
9:35 PM 49.3 °F - 27.0 °F 42% 30.29 in 10.0 mi North 11.5 mph 25.3 mph N/A   Overcast
9:55 PM 49.1 °F - 27.5 °F 43% 30.29 in 10.0 mi NNE 13.8 mph 21.9 mph N/A   Overcast
10:15 PM 49.1 °F - 28.0 °F 44% 30.30 in 10.0 mi NNE 13.8 mph 20.7 mph N/A   Overcast
10:55 PM 48.4 °F - 27.7 °F 45% 30.32 in 10.0 mi NNE 13.8 mph 20.7 mph N/A   Overcast
11:15 PM 48.2 °F - 27.1 °F 44% 30.33 in 10.0 mi NNE 15.0 mph 20.7 mph N/A   Overcast
11:35 PM 47.8 °F - 26.8 °F 44% 30.33 in 10.0 mi NNE 13.8 mph 18.4 mph N/A   Overcast
11:55 PM 47.3 °F - 24.6 °F 41% 30.34 in 10.0 mi NNE 12.7 mph 21.9 mph N/A   Overcast